Darstellungsparameter: Aktuell verwendete Einstellungen:
Skalierung der Graphiken ... ?
xyx+y,   Skalierungsfaktor:      Skalierung: Modus: x, Faktor: 1
Darstellungszeitraum ... ?
Vom - - bis: - -   Zeitraum: 10.08.2019 - 09.08.2020
Min/Max/Avg-Anzeige ... ?
Zeige MMA aktuell
Zeige MMA Monat
Zeige MMA alles
Zeige --A aktuell
Zeige --A Monat
Zeige --A alles
Keine MMA-Anzeige
MMA:
Keine MMA-Graphiken
MMA-Basis: 10.08.2019 - 09.08.2020
Quicknavigation für Darstellung... ?
Tage:      1T, 2T, 3T, 5T -1T -2T -3T -5T +1T +2T +3T +5T
Wochen: 1W, 2W, 3W -1W -2W -3W +1W +2W +3W
Monate: 1M, 3M, 6M -1M -3M -6M +1M +3M +6M
Jahre:    1J, 3J, 5J, 10J -1J -3J -5J -10J +1J +3J +5J +10J
Nutze für die Darstellung ... ?
Originaldaten oder ...
Mittelwerte Minima Maxima auf...
Stundenbasis Tagesbasis Wochenbasis
Monatsbasis Jahresbasis      Datenbasis: Mittelwerte auf Tagesbasis
Darstellen als:
Statistik (Auto) Statistik J:M      Darstellung:
Zur Graphik,    zurück zur Übersicht aller Sensoren.
 
Tabellarische Datenbersicht: ?
 
Sensor: Nr:Datum:Temp:Feuchte:Taupunkt:
Aussen-T/F 1 10-08-2019 00:00:00 20.67986 C 77.2986 % 16.56 C
2 11-08-2019 00:00:00 16.99444 C 80.9028 % 13.69 C
3 12-08-2019 00:00:00 16.4441 C 84.5729 % 13.84 C
4 13-08-2019 00:00:00 15.94306 C 78.5799 % 12.23 C
5 14-08-2019 00:00:00 16.52882 C 76.0139 % 12.29 C
6 15-08-2019 00:00:00 17.34306 C 88.4896 % 15.42 C
7 16-08-2019 00:00:00 17.72257 C 80.7049 % 14.37 C
8 17-08-2019 00:00:00 18.07049 C 86.6146 % 15.8 C
9 18-08-2019 00:00:00 19.8941 C 90.2847 % 18.25 C
10 19-08-2019 00:00:00 18.3684 C 77.8715 % 14.44 C
11 20-08-2019 00:00:00 15.78611 C 80.0347 % 12.35 C
12 21-08-2019 00:00:00 16.52222 C 75.4306 % 12.17 C
13 22-08-2019 00:00:00 17.27465 C 72.3576 % 12.26 C
14 23-08-2019 00:00:00 18.44792 C 70.9271 % 13.08 C
15 24-08-2019 00:00:00 19.52326 C 70.7153 % 14.06 C
16 25-08-2019 00:00:00 21.57431 C 75.4097 % 17.04 C
17 26-08-2019 00:00:00 22.3684 C 80.4097 % 18.83 C
18 27-08-2019 00:00:00 22.81979 C 79.4132 % 19.07 C
19 28-08-2019 00:00:00 23.38924 C 73.0868 % 18.29 C
20 29-08-2019 00:00:00 22.04201 C 76.9236 % 17.81 C
21 30-08-2019 00:00:00 21.0059 C 72.4444 % 15.86 C
22 31-08-2019 00:00:00 22.0566 C 72.1215 % 16.8 C
23 01-09-2019 00:00:00 18.73056 C 76.1563 % 14.45 C
24 02-09-2019 00:00:00 15.43958 C 67.8264 % 9.53 C
25 03-09-2019 00:00:00 15.68611 C 70.4340 % 10.33 C
Sensor: Nr:Datum:Temp:Feuchte:Taupunkt:
Aussen-T/F 26 04-09-2019 00:00:00 16.83646 C 77.0521 % 12.79 C
27 05-09-2019 00:00:00 15.41285 C 74.8958 % 10.99 C
28 06-09-2019 00:00:00 13.54271 C 71.3021 % 8.45 C
29 07-09-2019 00:00:00 12.95382 C 86.8160 % 10.81 C
30 08-09-2019 00:00:00 12.67778 C 94.2569 % 11.78 C
31 09-09-2019 00:00:00 12.50868 C 90.4583 % 10.99 C
32 10-09-2019 00:00:00 11.86563 C 85.2361 % 9.47 C
33 11-09-2019 00:00:00 13.34931 C 80.9444 % 10.15 C
34 12-09-2019 00:00:00 19.07292 C 78.3889 % 15.23 C
35 13-09-2019 00:00:00 17.76319 C 88.1424 % 15.78 C
36 14-09-2019 00:00:00 15.58229 C 81.1806 % 12.37 C
37 15-09-2019 00:00:00 15.40243 C 78.5451 % 11.69 C
38 16-09-2019 00:00:00 16.09444 C 78.7569 % 12.41 C
39 17-09-2019 00:00:00 15.6191 C 73.6736 % 10.94 C
40 18-09-2019 00:00:00 11.41215 C 73.9826 % 6.95 C
41 19-09-2019 00:00:00 10.47361 C 74.5903 % 6.16 C
42 20-09-2019 00:00:00 10.72153 C 72.3958 % 5.97 C
43 21-09-2019 00:00:00 12.32465 C 69.3090 % 6.87 C
44 22-09-2019 00:00:00 14.8625 C 75.8819 % 10.65 C
45 23-09-2019 00:00:00 16.54479 C 84.7118 % 13.96 C
46 24-09-2019 00:00:00 14.13194 C 90.2847 % 12.57 C
47 25-09-2019 00:00:00 15.26806 C 90.7986 % 13.77 C
48 26-09-2019 00:00:00 16.26111 C 92.6840 % 15.07 C
49 27-09-2019 00:00:00 16.20451 C 86.9097 % 14.02 C
50 28-09-2019 00:00:00 15.30903 C 84.9306 % 12.79 C
Sensor: Nr:Datum:Temp:Feuchte:Taupunkt:
Aussen-T/F 51 29-09-2019 00:00:00 16.12778 C 82.9965 % 13.24 C
52 30-09-2019 00:00:00 15.31424 C 80.2917 % 11.94 C
53 01-10-2019 00:00:00 15.98125 C 88.2743 % 14.04 C
54 02-10-2019 00:00:00 12.49479 C 83.0764 % 9.7 C
55 03-10-2019 00:00:00 9.77535 C 90.5313 % 8.3 C
56 04-10-2019 00:00:00 10.31563 C 95.1563 % 9.58 C
57 05-10-2019 00:00:00 10.64965 C 87.9444 % 8.74 C
58 06-10-2019 00:00:00 8.34063 C 95.9896 % 7.74 C
59 07-10-2019 00:00:00 10.09167 C 94.3785 % 9.23 C
60 08-10-2019 00:00:00 12.83333 C 94.7292 % 12.01 C
61 09-10-2019 00:00:00 11.68715 C 92.5069 % 10.51 C
62 10-10-2019 00:00:00 11.67509 C 86.3404 % 9.47 C
63 11-10-2019 00:00:00 12.72361 C 89.2500 % 11 C
64 12-10-2019 00:00:00 13.63368 C 89.1597 % 11.88 C
65 13-10-2019 00:00:00 16.44722 C 91.2153 % 15.01 C
66 14-10-2019 00:00:00 16.00938 C 89.6632 % 14.31 C
67 15-10-2019 00:00:00 14.32674 C 92.2014 % 13.08 C
68 16-10-2019 00:00:00 12.65347 C 94.1042 % 11.73 C
69 17-10-2019 00:00:00 14.64826 C 90.9861 % 13.19 C
70 18-10-2019 00:00:00 12.52604 C 91.7500 % 11.22 C
71 19-10-2019 00:00:00 12.88561 C 90.9460 % 11.44 C
72 20-10-2019 00:00:00 13.60139 C 97.5645 % 13.22 C
73 21-10-2019 00:00:00 13.67735 C 93.5157 % 12.65 C
74 22-10-2019 00:00:00 11.49819 C 91.8520 % 10.22 C
75 23-10-2019 00:00:00 11.05972 C 94.7847 % 10.26 C
Sensor: Nr:Datum:Temp:Feuchte:Taupunkt:
Aussen-T/F 76 24-10-2019 00:00:00 14.06458 C 92.1528 % 12.81 C
77 25-10-2019 00:00:00 13.32951 C 87.3889 % 11.28 C
78 26-10-2019 00:00:00 13.17604 C 91.4201 % 11.81 C
79 27-10-2019 00:00:00 10.25174 C 93.0868 % 9.19 C
80 28-10-2019 00:00:00 6.33854 C 96.7847 % 5.87 C
81 29-10-2019 00:00:00 6.56632 C 92.0972 % 5.38 C
82 30-10-2019 00:00:00 3.52778 C 93.9410 % 2.65 C
83 31-10-2019 00:00:00 2.23438 C 93.5799 % 1.31 C
84 01-11-2019 00:00:00 6.02465 C 96.1736 % 5.46 C
85 02-11-2019 00:00:00 13.19792 C 90.2188 % 11.63 C
86 03-11-2019 00:00:00 11.85035 C 91.8125 % 10.56 C
87 04-11-2019 00:00:00 10.33333 C 92.9306 % 9.24 C
88 05-11-2019 00:00:00 9.70972 C 89.4826 % 8.07 C
89 06-11-2019 00:00:00 8.97569 C 95.1563 % 8.24 C
90 07-11-2019 00:00:00 7.93611 C 95.3368 % 7.24 C
91 08-11-2019 00:00:00 4.99444 C 96.5208 % 4.49 C
92 09-11-2019 00:00:00 4.99167 C 94.0208 % 4.11 C
93 10-11-2019 00:00:00 3.02188 C 95.6250 % 2.39 C
94 11-11-2019 00:00:00 4.67986 C 91.5590 % 3.43 C
95 12-11-2019 00:00:00 5.9125 C 88.3194 % 4.13 C
96 13-11-2019 00:00:00 5.47431 C 88.2153 % 3.68 C
97 14-11-2019 00:00:00 5.50729 C 85.9549 % 3.35 C
98 15-11-2019 00:00:00 4.68958 C 88.1493 % 2.9 C
99 16-11-2019 00:00:00 2.11389 C 95.5069 % 1.47 C
100 17-11-2019 00:00:00 3.09271 C 97.1215 % 2.68 C
Sensor: Nr:Datum:Temp:Feuchte:Taupunkt:
Aussen-T/F 101 18-11-2019 00:00:00 4.31181 C 96.2604 % 3.77 C
102 19-11-2019 00:00:00 3.99132 C 94.7500 % 3.23 C
103 20-11-2019 00:00:00 1.59583 C 94.7847 % 0.85 C
104 21-11-2019 00:00:00 1.90833 C 96.0347 % 1.34 C
105 22-11-2019 00:00:00 4.39097 C 95.3056 % 3.71 C
106 23-11-2019 00:00:00 5.38785 C 93.0174 % 4.35 C
107 24-11-2019 00:00:00 2.90104 C 97.1979 % 2.5 C
108 25-11-2019 00:00:00 4.80833 C 97.1042 % 4.39 C
109 26-11-2019 00:00:00 8.38542 C 94.7500 % 7.59 C
110 27-11-2019 00:00:00 10.34479 C 89.7222 % 8.73 C
111 28-11-2019 00:00:00 10.92778 C 83.5694 % 8.26 C
112 29-11-2019 00:00:00 6.44618 C 89.1771 % 4.8 C
113 30-11-2019 00:00:00 1.19549 C 96.2257 % 0.66 C
114 01-12-2019 00:00:00 1.79271 C 92.4965 % 0.71 C
115 02-12-2019 00:00:00 1.98646 C 93.2778 % 1.02 C
116 03-12-2019 00:00:00 4.75729 C 96.0625 % 4.18 C
117 04-12-2019 00:00:00 1.34375 C 96.3681 % 0.83 C
118 05-12-2019 00:00:00 -1.15625 C 96.9167 % -1.58 C
119 06-12-2019 00:00:00 3.41285 C 93.3160 % 2.44 C
120 07-12-2019 00:00:00 8.70903 C 88.7882 % 6.97 C
121 08-12-2019 00:00:00 10.05903 C 86.0243 % 7.83 C
122 09-12-2019 00:00:00 7.72222 C 84.5833 % 5.29 C
123 10-12-2019 00:00:00 3.24757 C 90.9167 % 1.91 C
124 11-12-2019 00:00:00 3.97292 C 94.6632 % 3.2 C
125 12-12-2019 00:00:00 3.52361 C 93.9618 % 2.65 C
Sensor: Nr:Datum:Temp:Feuchte:Taupunkt:
Aussen-T/F 126 13-12-2019 00:00:00 4.09722 C 92.0938 % 2.93 C
127 14-12-2019 00:00:00 6.8934 C 85.5833 % 4.65 C
128 15-12-2019 00:00:00 7.90069 C 88.2847 % 6.09 C
129 16-12-2019 00:00:00 8.12951 C 96.7951 % 7.65 C
130 17-12-2019 00:00:00 10.43056 C 89.8924 % 8.85 C
131 18-12-2019 00:00:00 7.77014 C 93.5347 % 6.79 C
132 19-12-2019 00:00:00 5.57986 C 95.8611 % 4.97 C
133 20-12-2019 00:00:00 7.73264 C 92.3542 % 6.57 C
134 21-12-2019 00:00:00 7.24826 C 90.1111 % 5.74 C
135 22-12-2019 00:00:00 8.18368 C 89.0243 % 6.49 C
136 23-12-2019 00:00:00 7.83021 C 88.5660 % 6.06 C
137 24-12-2019 00:00:00 7.67986 C 89.1910 % 6.02 C
138 25-12-2019 00:00:00 7.66389 C 90.7500 % 6.25 C
139 26-12-2019 00:00:00 4.9934 C 96.1910 % 4.44 C
140 27-12-2019 00:00:00 5.12153 C 94.6042 % 4.33 C
141 28-12-2019 00:00:00 -0.27465 C 95.9965 % -0.83 C
142 29-12-2019 00:00:00 -1.04618 C 95.4028 % -1.69 C
143 30-12-2019 00:00:00 -0.88507 C 94.5521 % -1.65 C
144 31-12-2019 00:00:00 0.52326 C 93.2639 % -0.44 C
145 01-01-2020 00:00:00 0.89583 C 94.9653 % 0.18 C
146 02-01-2020 00:00:00 1.68611 C 94.9097 % 0.96 C
147 03-01-2020 00:00:00 7.56111 C 91.1042 % 6.21 C
148 04-01-2020 00:00:00 5.45936 C 89.2438 % 3.83 C
149 05-01-2020 00:00:00 5.96021 C 93.0845 % 4.93 C
150 06-01-2020 00:00:00 2.98542 C 93.2813 % 2.01 C
Sensor: Nr:Datum:Temp:Feuchte:Taupunkt:
Aussen-T/F 151 07-01-2020 00:00:00 5.07812 C 92.2535 % 3.93 C
152 08-01-2020 00:00:00 8.28333 C 92.5347 % 7.15 C
153 09-01-2020 00:00:00 10.92535 C 92.7778 % 9.8 C
154 10-01-2020 00:00:00 8.91667 C 88.2604 % 7.08 C
155 11-01-2020 00:00:00 4.34236 C 88.6354 % 2.64 C
156 12-01-2020 00:00:00 5.14718 C 87.9120 % 3.31 C
157 13-01-2020 00:00:00 6.54201 C 91.7431 % 5.3 C
158 14-01-2020 00:00:00 9.77153 C 77.8924 % 6.11 C
159 15-01-2020 00:00:00 10.89063 C 76.6285 % 6.95 C
160 16-01-2020 00:00:00 7.81181 C 95.4653 % 7.13 C
161 17-01-2020 00:00:00 6.03854 C 93.7014 % 5.1 C
162 18-01-2020 00:00:00 4.44062 C 88.2049 % 2.66 C
163 19-01-2020 00:00:00 3.78507 C 94.1736 % 2.94 C
164 20-01-2020 00:00:00 2.42431 C 91.7396 % 1.22 C
165 21-01-2020 00:00:00 -1.80243 C 96.3750 % -2.3 C
166 22-01-2020 00:00:00 -1.19236 C 97.1354 % -1.59 C
167 23-01-2020 00:00:00 1.30764 C 97.1111 % 0.9 C
168 24-01-2020 00:00:00 1.43415 C 91.4390 % 0.2 C
169 25-01-2020 00:00:00 2.65128 C 94.0366 % 1.79 C
170 26-01-2020 00:00:00 2.81007 C 94.9063 % 2.08 C
171 27-01-2020 00:00:00 6.29028 C 94.0347 % 5.4 C
172 28-01-2020 00:00:00 5.69583 C 86.0521 % 3.55 C
173 29-01-2020 00:00:00 4.80035 C 82.8264 % 2.14 C
174 30-01-2020 00:00:00 7.99861 C 84.7257 % 5.59 C
175 31-01-2020 00:00:00 13.03785 C 84.2014 % 10.44 C
Sensor: Nr:Datum:Temp:Feuchte:Taupunkt:
Aussen-T/F 176 01-02-2020 00:00:00 11.64167 C 87.8160 % 9.69 C
177 02-02-2020 00:00:00 10.18611 C 84.6319 % 7.72 C
178 03-02-2020 00:00:00 10.60417 C 82.2847 % 7.71 C
179 04-02-2020 00:00:00 5.02986 C 89.6736 % 3.48 C
180 05-02-2020 00:00:00 3.76389 C 88.0764 % 1.98 C
181 06-02-2020 00:00:00 0.78437 C 93.4340 % -0.15 C
182 07-02-2020 00:00:00 0.2559 C 95.0521 % -0.44 C
183 08-02-2020 00:00:00 1.77708 C 94.2569 % 0.95 C
184 09-02-2020 00:00:00 8.82708 C 82.6076 % 6.03 C
185 10-02-2020 00:00:00 8.29444 C 82.5104 % 5.5 C
186 11-02-2020 00:00:00 5.77535 C 73.1319 % 1.35 C
187 12-02-2020 00:00:00 4.81875 C 81.1910 % 1.87 C
188 13-02-2020 00:00:00 4.01076 C 92.9375 % 2.97 C
189 14-02-2020 00:00:00 6.17951 C 91.1042 % 4.84 C
190 15-02-2020 00:00:00 6.23438 C 89.5347 % 4.64 C
191 16-02-2020 00:00:00 14.59028 C 64.9583 % 8.08 C
192 17-02-2020 00:00:00 8.54375 C 82.6597 % 5.77 C
193 18-02-2020 00:00:00 7.24965 C 80.2083 % 4.07 C
194 19-02-2020 00:00:00 6.24514 C 77.9688 % 2.7 C
195 20-02-2020 00:00:00 8.16562 C 82.5000 % 5.37 C
196 21-02-2020 00:00:00 5.17604 C 82.3542 % 2.42 C
197 22-02-2020 00:00:00 8.05035 C 78.1007 % 4.47 C
198 23-02-2020 00:00:00 10.5066 C 86.7535 % 8.4 C
199 24-02-2020 00:00:00 8.10972 C 87.2431 % 6.12 C
200 25-02-2020 00:00:00 9.07813 C 81.3194 % 6.05 C
Sensor: Nr:Datum:Temp:Feuchte:Taupunkt:
Aussen-T/F 201 26-02-2020 00:00:00 4.86319 C 80.5799 % 1.81 C
202 27-02-2020 00:00:00 2.97813 C 90.2500 % 1.54 C
203 28-02-2020 00:00:00 3.97257 C 87.1111 % 2.03 C
204 29-02-2020 00:00:00 8.92083 C 83.1944 % 6.23 C
205 01-03-2020 00:00:00 7.55313 C 83.2500 % 4.9 C
206 02-03-2020 00:00:00 6.27882 C 88.9965 % 4.6 C
207 03-03-2020 00:00:00 4.69236 C 88.6910 % 2.99 C
208 04-03-2020 00:00:00 5.49583 C 85.8333 % 3.32 C
209 05-03-2020 00:00:00 6.08229 C 93.0486 % 5.05 C
210 06-03-2020 00:00:00 6.29896 C 90.4271 % 4.85 C
211 07-03-2020 00:00:00 6.57396 C 78.9375 % 3.19 C
212 08-03-2020 00:00:00 9.63993 C 76.9618 % 5.8 C
213 09-03-2020 00:00:00 7.99514 C 81.5208 % 5.03 C
214 10-03-2020 00:00:00 9.51076 C 90.5833 % 8.05 C
215 11-03-2020 00:00:00 14.09028 C 86.0660 % 11.8 C
216 12-03-2020 00:00:00 11.24514 C 72.6007 % 6.51 C
217 13-03-2020 00:00:00 7.37569 C 76.2951 % 3.49 C
218 14-03-2020 00:00:00 6.05799 C 83.2604 % 3.44 C
219 15-03-2020 00:00:00 8.92639 C 74.2326 % 4.6 C
220 16-03-2020 00:00:00 9.3 C 80.2431 % 6.08 C
221 17-03-2020 00:00:00 11.38021 C 79.9722 % 8.05 C
222 18-03-2020 00:00:00 9.96493 C 82.5590 % 7.14 C
223 19-03-2020 00:00:00 12.13646 C 76.1042 % 8.06 C
224 20-03-2020 00:00:00 10.33299 C 84.0660 % 7.76 C
225 21-03-2020 00:00:00 6.16667 C 76.4236 % 2.34 C
Sensor: Nr:Datum:Temp:Feuchte:Taupunkt:
Aussen-T/F 226 22-03-2020 00:00:00 4.50243 C 57.8438 % -3.06 C
227 23-03-2020 00:00:00 2.99688 C 55.3889 % -5.05 C
228 24-03-2020 00:00:00 2.86181 C 56.4375 % -4.93 C
229 25-03-2020 00:00:00 3.75208 C 52.7257 % -4.99 C
230 26-03-2020 00:00:00 5.07118 C 57.3819 % -2.64 C
231 27-03-2020 00:00:00 7.93715 C 66.7500 % 2.15 C
232 28-03-2020 00:00:00 9.59861 C 66.6528 % 3.71 C
233 29-03-2020 00:00:00 5.44891 C 69.6413 % 0.36 C
234 30-03-2020 00:00:00 2.775 C 64.1319 % -3.31 C
235 31-03-2020 00:00:00 5.47118 C 66.1771 % -0.32 C
236 01-04-2020 00:00:00 3.8184 C 62.2569 % -2.72 C
237 02-04-2020 00:00:00 5.06042 C 67.9931 % -0.35 C
238 03-04-2020 00:00:00 8.20382 C 67.0382 % 2.46 C
239 04-04-2020 00:00:00 6.78958 C 68.9722 % 1.51 C
240 05-04-2020 00:00:00 9.49479 C 65.0729 % 3.27 C
241 06-04-2020 00:00:00 12.0434 C 60.3299 % 4.61 C
242 07-04-2020 00:00:00 13.80521 C 67.0417 % 7.8 C
243 08-04-2020 00:00:00 14.48472 C 65.0764 % 8.01 C
244 09-04-2020 00:00:00 15.29167 C 62.6840 % 8.22 C
245 10-04-2020 00:00:00 14.13646 C 66.3542 % 7.96 C
246 11-04-2020 00:00:00 14.06563 C 57.0417 % 5.7 C
247 12-04-2020 00:00:00 15.15174 C 60.2361 % 7.51 C
248 13-04-2020 00:00:00 9.40139 C 69.2118 % 4.05 C
249 14-04-2020 00:00:00 6.11181 C 64.0868 % -0.16 C
250 15-04-2020 00:00:00 8.67361 C 64.9514 % 2.46 C
Sensor: Nr:Datum:Temp:Feuchte:Taupunkt:
Aussen-T/F 251 16-04-2020 00:00:00 12.83299 C 63.9514 % 6.19 C
252 17-04-2020 00:00:00 15.23854 C 69.5278 % 9.71 C
253 18-04-2020 00:00:00 14.52083 C 78.8333 % 10.89 C
254 19-04-2020 00:00:00 13.06597 C 78.2396 % 9.37 C
255 20-04-2020 00:00:00 12.5066 C 50.4653 % 2.51 C
256 21-04-2020 00:00:00 13.59583 C 47.9965 % 2.81 C
257 22-04-2020 00:00:00 14.35 C 50.4549 % 4.2 C
258 23-04-2020 00:00:00 14.16042 C 57.7604 % 5.97 C
259 24-04-2020 00:00:00 13.96285 C 61.8542 % 6.77 C
260 25-04-2020 00:00:00 12.06389 C 62.5347 % 5.14 C
261 26-04-2020 00:00:00 11.44375 C 66.4514 % 5.42 C
262 27-04-2020 00:00:00 12.89201 C 66.5382 % 6.82 C
263 28-04-2020 00:00:00 12.69306 C 86.7639 % 10.55 C
264 29-04-2020 00:00:00 14.31979 C 76.7049 % 10.29 C
265 30-04-2020 00:00:00 12.21632 C 83.3299 % 9.48 C
266 01-05-2020 00:00:00 10.57674 C 86.4444 % 8.41 C
267 02-05-2020 00:00:00 9.93542 C 83.8403 % 7.33 C
268 03-05-2020 00:00:00 10.39028 C 77.2500 % 6.59 C
269 04-05-2020 00:00:00 11.82361 C 83.7986 % 9.18 C
270 05-05-2020 00:00:00 10.30833 C 68.8333 % 4.84 C
271 06-05-2020 00:00:00 10.34687 C 62.9375 % 3.61 C
272 07-05-2020 00:00:00 12.36771 C 67.0278 % 6.43 C
273 08-05-2020 00:00:00 15.11146 C 64.7535 % 8.53 C
274 09-05-2020 00:00:00 15.97396 C 71.7986 % 10.89 C
275 10-05-2020 00:00:00 15.5441 C 87.0729 % 13.4 C
Sensor: Nr:Datum:Temp:Feuchte:Taupunkt:
Aussen-T/F 276 11-05-2020 00:00:00 9.41007 C 72.6944 % 4.76 C
277 12-05-2020 00:00:00 7.67674 C 65.0833 % 1.54 C
278 13-05-2020 00:00:00 8.92604 C 67.5104 % 3.25 C
279 14-05-2020 00:00:00 9.71389 C 66.2535 % 3.73 C
280 15-05-2020 00:00:00 10.43264 C 60.9375 % 3.23 C
281 16-05-2020 00:00:00 11.17396 C 64.1319 % 4.66 C
282 17-05-2020 00:00:00 13.11528 C 63.3750 % 6.33 C
283 18-05-2020 00:00:00 15.67292 C 64.9167 % 9.1 C
284 19-05-2020 00:00:00 16.60729 C 65.8542 % 10.2 C
285 20-05-2020 00:00:00 17.77917 C 71.9375 % 12.65 C
286 21-05-2020 00:00:00 19.01562 C 69.2535 % 13.26 C
287 22-05-2020 00:00:00 19.97639 C 75.2535 % 15.46 C
288 23-05-2020 00:00:00 13.69236 C 87.6181 % 11.68 C
289 24-05-2020 00:00:00 13.58542 C 74.5799 % 9.16 C
290 25-05-2020 00:00:00 15.93854 C 74.9514 % 11.51 C
291 26-05-2020 00:00:00 14.58437 C 71.8056 % 9.56 C
292 27-05-2020 00:00:00 16.48611 C 64.8958 % 9.87 C
293 28-05-2020 00:00:00 17.49132 C 54.2049 % 8.15 C
294 29-05-2020 00:00:00 15.20764 C 57.9097 % 6.98 C
295 30-05-2020 00:00:00 15.6941 C 55.5278 % 6.83 C
296 31-05-2020 00:00:00 15.11597 C 60.7847 % 7.61 C
297 01-06-2020 00:00:00 17.87257 C 60.3785 % 10.1 C
298 02-06-2020 00:00:00 19.76701 C 57.8264 % 11.23 C
299 03-06-2020 00:00:00 19.96667 C 60.3333 % 12.06 C
300 04-06-2020 00:00:00 14.67257 C 91.4792 % 13.3 C
Sensor: Nr:Datum:Temp:Feuchte:Taupunkt:
Aussen-T/F 301 05-06-2020 00:00:00 11.51111 C 85.9722 % 9.25 C
302 06-06-2020 00:00:00 12.4684 C 81.1806 % 9.33 C
303 07-06-2020 00:00:00 13.39861 C 74.3194 % 8.93 C
304 08-06-2020 00:00:00 14.75035 C 72.9375 % 9.95 C
305 09-06-2020 00:00:00 13.99236 C 88.3715 % 12.1 C
306 10-06-2020 00:00:00 15.4 C 85.7326 % 13.02 C
307 11-06-2020 00:00:00 15.74271 C 85.5799 % 13.33 C
308 12-06-2020 00:00:00 19.42083 C 73.5938 % 14.58 C
309 13-06-2020 00:00:00 20.95799 C 70.8958 % 15.48 C
310 14-06-2020 00:00:00 18.87917 C 80.4340 % 15.44 C
311 15-06-2020 00:00:00 18.60291 C 80.5345 % 15.19 C
312 16-06-2020 00:00:00 18.0434 C 88.9236 % 16.19 C
313 17-06-2020 00:00:00 17.45903 C 89.6771 % 15.75 C
314 18-06-2020 00:00:00 18.51528 C 77.4028 % 14.49 C
315 19-06-2020 00:00:00 16.72674 C 84.4549 % 14.09 C
316 20-06-2020 00:00:00 16.94271 C 84.7535 % 14.36 C
317 21-06-2020 00:00:00 19.05278 C 74.7396 % 14.47 C
318 22-06-2020 00:00:00 18.83785 C 72.4236 % 13.77 C
319 23-06-2020 00:00:00 19.59583 C 68.6840 % 13.69 C
320 24-06-2020 00:00:00 21.22153 C 60.2153 % 13.21 C
321 25-06-2020 00:00:00 21.70278 C 67.7535 % 15.48 C
322 26-06-2020 00:00:00 21.67743 C 70.8264 % 16.15 C
323 27-06-2020 00:00:00 22.68785 C 72.4479 % 17.48 C
324 28-06-2020 00:00:00 19.86979 C 72.4236 % 14.77 C
325 29-06-2020 00:00:00 17.69792 C 71.6701 % 12.52 C
Sensor: Nr:Datum:Temp:Feuchte:Taupunkt:
Aussen-T/F 326 30-06-2020 00:00:00 16.88194 C 71.2639 % 11.65 C
327 01-07-2020 00:00:00 21.29896 C 71.3889 % 15.91 C
328 02-07-2020 00:00:00 18.73125 C 81.7639 % 15.55 C
329 03-07-2020 00:00:00 17.73958 C 72.1597 % 12.66 C
330 04-07-2020 00:00:00 19.09826 C 68.4722 % 13.16 C
331 05-07-2020 00:00:00 22.80243 C 71.1076 % 17.29 C
332 06-07-2020 00:00:00 16.79653 C 65.8646 % 10.38 C
333 07-07-2020 00:00:00 16.09792 C 67.7292 % 10.14 C
334 08-07-2020 00:00:00 15.87639 C 86.0139 % 13.54 C
335 09-07-2020 00:00:00 21.61424 C 74.6667 % 16.92 C
336 10-07-2020 00:00:00 18.63368 C 78.6215 % 14.85 C
337 11-07-2020 00:00:00 16.57431 C 67.3646 % 10.51 C
338 12-07-2020 00:00:00 16.85382 C 66.0139 % 10.47 C
339 13-07-2020 00:00:00 19.08542 C 59.6354 % 11.05 C
340 14-07-2020 00:00:00 18.66215 C 67.1389 % 12.45 C
341 15-07-2020 00:00:00 17.55208 C 72.7569 % 12.61 C
342 16-07-2020 00:00:00 16.0875 C 88.8715 % 14.25 C
343 17-07-2020 00:00:00 18.58611 C 80.2222 % 15.11 C
344 18-07-2020 00:00:00 19.51944 C 74.3264 % 14.83 C
345 19-07-2020 00:00:00 22.30451 C 63.0590 % 14.94 C
346 20-07-2020 00:00:00 19.42708 C 71.6215 % 14.17 C
347 21-07-2020 00:00:00 17.64722 C 62.2118 % 10.34 C
348 22-07-2020 00:00:00 17.13264 C 62.9931 % 10.04 C
349 23-07-2020 00:00:00 18.84618 C 60.0208 % 10.93 C
350 24-07-2020 00:00:00 21.21007 C 59.2118 % 12.94 C
Sensor: Nr:Datum:Temp:Feuchte:Taupunkt:
Aussen-T/F 351 25-07-2020 00:00:00 21.01562 C 67.9618 % 14.88 C
352 26-07-2020 00:00:00 20.87674 C 70.5660 % 15.33 C
353 27-07-2020 00:00:00 21.66215 C 63.9306 % 14.54 C
354 28-07-2020 00:00:00 22.91424 C 54.3299 % 13.21 C
355 29-07-2020 00:00:00 18.94583 C 61.6007 % 11.41 C
356 30-07-2020 00:00:00 20.4309 C 59.1424 % 12.19 C
357 31-07-2020 00:00:00 24.16007 C 52.9340 % 13.96 C
358 01-08-2020 00:00:00 21.98437 C 78.4896 % 18.07 C
359 02-08-2020 00:00:00 21.28472 C 73.8993 % 16.44 C
360 03-08-2020 00:00:00 18.1684 C 72.7361 % 13.2 C
361 04-08-2020 00:00:00 19.15486 C 64.7847 % 12.37 C
362 05-08-2020 00:00:00 19.44549 C 61.2292 % 11.79 C
363 06-08-2020 00:00:00 21.8184 C 59.4549 % 13.57 C
364 07-08-2020 00:00:00 23.97535 C 59.4826 % 15.6 C
365 08-08-2020 00:00:00 26.13125 C 58.1875 % 17.27 C
366 09-08-2020 00:00:00 24.35937 C 66.6146 % 17.74 C

Maximal/Minimal-Werte vom 10.08.2019 - 09.08.2020

Sensor Min Max Avg
Temp
(Aussen-T/F)
-3.6 °C
29-12-2019  07:25:00
38.2 °C
08-08-2020  17:10:00
11.6 °C
Feuchte
(Aussen-T/F)
21 %
31-07-2020  17:15:00
99 %
21-10-2019  10:45:00
80.23 %
Taupunkt
(Aussen-T/F)
-5.05 C
23-03-2020  00:00:00
19.07 C
27-08-2019  00:00:00
8.08 C

Die Daten stammen von einer Davis Vantage Pro 2 Wetter-Station und werden unter Linux mit der Software wview2wettercgi und aufbereitet. Alle Angaben erfolgen ohne Gewähr für ihre Vollständigkeit oder Richtigkeit.
Kontakt: Rainer Krienke krienke@uni-koblenz.de . Meine Webseiten an der Uni Koblenz oder privat.
Version: $Revision: 0.78 $